#timestamp,LO_Frequency,Hit,StdDev 
1458748815.7,286047004.3,N
1458748835.6,286047002.3,N
1458748855.4,286047001.7,N
1458748875.2,286047000.4,N
1458748895.0,286046999.1,N
1458748895.9,286046999.1,N
1458748915.8,286047002.6,N
1458748935.6,286047002.4,N
1458748955.4,286047002.0,N
1458748975.3,286047001.4,N
1458748995.1,286047001.8,N
1458749015.8,286046999.7,N
1458749035.7,286047002.0,N
1458749055.5,286047002.3,N
1458749075.3,286047000.5,N
1458749095.2,286046998.1,N
1458749115.9,286047000.9,N
1458749135.7,286046999.9,N
1458749155.6,286047001.6,N
1458749175.4,286047001.6,N
1458749195.2,286047003.6,N
1458749215.0,286047002.0,N
1458749215.9,286047002.0,N
1458749235.8,286047003.4,N
1458749255.6,286047004.1,N
1458749275.4,286047000.1,N
1458749295.3,286047000.9,N
1458749315.1,286046998.1,N
1458749335.8,286047004.4,N
1458749355.7,286047005.7,Y
1458749375.5,286047004.7,P
1458749395.3,286047005.0,P
1458749415.2,286047003.4,N
1458749435.9,286047004.8,Y
1458749455.7,286047002.6,P
1458749475.6,286047005.1,P
1458749495.4,286047003.0,N
1458749515.2,286047001.6,N
1458749535.1,286047003.7,Y
1458749536.0,286047003.7,P
1458749555.8,286047003.0,P
1458749575.6,286047001.8,P
1458749595.5,286047003.2,Y
1458749615.3,286047000.0,P
1458749635.1,286047001.0,N
1458749655.9,286047001.9,N
1458749675.7,286047002.1,N
1458749695.5,286047001.4,N
1458749715.4,286047006.0,Y
1458749735.2,286047000.8,P
1458749755.0,286046998.4,P
1458749755.9,286046998.4,N
1458749775.8,286047001.1,N
1458749795.6,286046996.9,N
1458749815.4,286046995.1,N
1458749835.3,286046997.0,N
1458749855.1,286047001.1,N
1458749856.0,286047001.1,N
1458749875.8,286046998.1,N
1458749895.7,286046999.5,N
1458749915.5,286046998.6,N
1458749935.3,286046999.6,N
1458749955.1,286046999.0,N
1458749975.9,286046997.3,N
1458749995.7,286046997.1,N
1458750015.5,286046999.6,N
1458750035.4,286046996.8,N
1458750055.2,286046995.1,N
1458750075.0,286046995.0,N
1458750075.9,286046995.0,N
1458750095.8,286046996.9,N
1458750115.6,286046999.1,N
1458750135.4,286046997.1,N
1458750155.3,286046997.2,N
1458750175.1,286046993.5,Y
1458750195.8,286046996.6,P
1458750215.7,286046997.6,P
1458750235.5,286046996.8,P
1458750255.3,286046997.4,Y
1458750275.2,286046999.5,P
1458750295.9,286046999.2,N
1458750315.7,286047000.3,N
1458750335.6,286047000.0,N
1458750355.4,286047004.3,Y
1458750375.2,286047003.4,P
1458750395.1,286047003.8,N
1458750396.0,286047003.8,N
1458750415.8,286047007.5,Y
1458750435.6,286047003.5,P
1458750455.5,286047001.4,N
1458750475.3,286047001.2,N
1458750495.1,286047000.7,N
1458750515.9,286047001.6,N
1458750535.7,286047001.7,N
1458750555.5,286047001.5,N
1458750575.4,286047001.5,N
1458750595.2,286046999.7,N
1458750615.0,286046999.7,N
1458750615.9,286046999.7,N
1458750635.7,286047000.1,N
1458750655.6,286046999.9,N
1458750675.4,286047002.5,N
1458750695.2,286047003.5,Y
1458750715.1,286047000.5,P
1458750716.0,286047000.5,N
1458750735.8,286046998.9,P
1458750755.6,286046999.3,N
1458750775.5,286046995.8,Y
1458750795.3,286046994.5,P
1458750815.1,286046994.6,N
1458750835.9,286046992.9,N
1458750855.7,286046993.2,N
1458750875.5,286046990.3,Y
1458750895.4,286046997.1,P
1458750915.2,286046999.3,N
1458750935.0,286046997.0,N
1458750935.9,286046997.0,N
1458750955.8,286046997.6,N
1458750975.6,286046995.2,Y
1458750995.4,286046999.7,P
1458751015.3,286047000.4,N
1458751035.1,286046999.9,N
1458751055.8,286046998.6,N
1458751075.7,286047000.7,N
1458751095.5,286047001.6,N
1458751115.3,286047003.7,N
1458751135.2,286047000.8,N
1458751155.9,286047002.5,N
1458751175.7,286046999.9,N
1458751195.6,286047000.4,N
1458751215.4,286047001.5,N
1458751235.2,286047003.9,N
1458751255.0,286047003.3,N
1458751255.9,286047003.3,N
1458751275.8,286047000.3,N
1458751295.6,286046997.0,N
1458751315.4,286046996.6,N
1458751335.3,286047000.8,N
1458751355.1,286046998.2,N
1458751375.8,286047002.6,N
1458751395.7,286047000.9,N
1458751415.5,286047006.0,N
1458751435.3,286047003.9,N
1458751455.2,286047001.1,N
1458751475.9,286046998.9,N
1458751495.7,286047000.8,N
1458751515.5,286047000.7,N
1458751535.4,286046996.6,N
1458751555.2,286046996.2,N
1458751575.0,286046993.7,N
1458751575.9,286046993.7,N
1458751595.8,286046994.4,N
1458751615.6,286046993.8,N
1458751635.4,286046993.8,N
1458751655.3,286046995.2,N
1458751675.1,286046995.5,N
1458751695.8,286046994.5,N
1458751715.7,286046993.8,N
1458751735.5,286046994.7,N
1458751755.3,286046992.2,N
1458751775.2,286046993.0,N
1458751795.9,286046994.3,N
1458751815.7,286046990.3,N
1458751835.6,286046992.8,N
1458751855.4,286046991.5,N
1458751875.2,286046987.3,Y
1458751895.1,286046988.5,P
1458751896.0,286046988.5,N
1458751915.8,286046991.4,N
1458751935.6,286046989.5,Y
1458751955.5,286046997.8,P
1458751975.3,286046995.4,N
1458751995.1,286046996.1,N
1458752015.9,286046997.8,N
1458752035.7,286046997.0,N
1458752055.5,286046998.7,N
1458752075.4,286046996.8,N
1458752095.2,286046999.6,N
1458752115.0,286046997.6,N
1458752115.9,286046997.6,N
1458752135.8,286046995.3,N
1458752155.6,286046997.5,N
1458752175.4,286046999.3,N
1458752195.2,286046998.6,N
1458752215.1,286046998.9,N
1458752216.0,286046998.9,N
1458752235.8,286047000.5,N
1458752255.6,286047004.1,N
1458752275.5,286047002.5,N
1458752295.3,286047001.8,N
1458752315.1,286047005.4,N
1458752335.9,286047007.9,N
1458752355.7,286047007.5,N
1458752375.5,286047007.6,N
1458752395.4,286047005.4,N
